| time (UTC) | temp F | wind direction | speed knots | gust knots | rain 1hr in | rain 24hr in | rain mn in | humidity % | barometer mb |
| 20260906223542 | 92 | 201 | 0.0 | 4.3 | 0.00 | 0.00 | 0.00 | 35 | 1015.4 |
| 20260906223020 | 92 | 197 | 0.0 | 4.3 | 0.00 | 0.00 | 0.00 | 33 | 1015.4 |
| 20260906222900 | 92 | 261 | 0.0 | 4.3 | 0.00 | 0.00 | 0.00 | 33 | 1015.4 |
| 20260906222441 | 92 | 231 | 0.0 | 8.7 | 0.00 | 0.00 | 0.00 | 33 | 1015.4 |
| 20260906222433 | 92 | 228 | 0.0 | 8.7 | 0.00 | 0.00 | 0.00 | 34 | 1015.4 |
| 20260906221840 | 92 | 172 | 0.0 | 8.7 | 0.00 | 0.00 | 0.00 | 35 | 1015.4 |
| 20260906221342 | 92 | 245 | 1.7 | 4.3 | 0.00 | 0.00 | 0.00 | 33 | 1015.4 |
| 20260906220817 | 92 | 221 | 0.9 | 4.3 | 0.00 | 0.00 | 0.00 | 34 | 1015.8 |
| 20260906220252 | 92 | 204 | 0.0 | 4.3 | 0.00 | 0.00 | 0.00 | 34 | 1015.8 |
| 20260906215742 | 92 | 303 | 3.5 | 4.3 | 0.00 | 0.00 | 0.00 | 34 | 1015.8 |
| 20260906215231 | 92 | 240 | 2.6 | 4.3 | 0.00 | 0.00 | 0.00 | 34 | 1015.8 |
| 20260906214708 | 91 | 279 | 0.0 | 7.0 | 0.00 | 0.00 | 0.00 | 34 | 1015.8 |
| 20260906214347 | 91 | 192 | 0.0 | 7.0 | 0.00 | 0.00 | 0.00 | 36 | 1016.2 |
| 20260906213622 | 92 | 75 | 2.6 | 7.0 | 0.00 | 0.00 | 0.00 | 35 | 1015.8 |
| 20260906213552 | 92 | 74 | 3.5 | 7.0 | 0.00 | 0.00 | 0.00 | 34 | 1016.2 |
| 20260906213028 | 92 | 224 | 0.0 | 7.0 | 0.00 | 0.00 | 0.00 | 36 | 1016.2 |
| 20260906212600 | 92 | 236 | 0.0 | 4.3 | 0.00 | 0.00 | 0.00 | 35 | 1016.2 |
| 20260906212443 | 92 | 251 | 1.7 | 4.3 | 0.00 | 0.00 | 0.00 | 35 | 1016.2 |
| 20260906211941 | 92 | 202 | 0.0 | 7.0 | 0.00 | 0.00 | 0.00 | 34 | 1016.2 |
| 20260906211539 | 92 | 121 | 1.7 | 7.0 | 0.00 | 0.00 | 0.00 | 37 | 1016.7 |
| 20260906211416 | 92 | 336 | 1.7 | 7.0 | 0.00 | 0.00 | 0.00 | 36 | 1016.2 |
| 20260906210852 | 92 | 81 | 1.7 | 7.0 | 0.00 | 0.00 | 0.00 | 35 | 1016.2 |
| 20260906210517 | 92 | 152 | 0.9 | 7.0 | 0.00 | 0.00 | 0.00 | 36 | 1016.2 |
| 20260906210342 | 92 | 85 | 3.5 | 7.0 | 0.00 | 0.00 | 0.00 | 35 | 1016.7 |
| 20260906210333 | 92 | 89 | 2.6 | 8.7 | 0.00 | 0.00 | 0.00 | 36 | 1016.7 |
| 20260906205809 | 91 | 277 | 2.6 | 8.7 | 0.00 | 0.00 | 0.00 | 36 | 1016.7 |
| 20260906205429 | 91 | 253 | 0.9 | 8.7 | 0.00 | 0.00 | 0.00 | 35 | 1016.7 |
| 20260906204717 | 91 | 184 | 0.0 | 7.0 | 0.00 | 0.00 | 0.00 | 36 | 1016.7 |
| 20260906204342 | 91 | 270 | 1.7 | 7.0 | 0.00 | 0.00 | 0.00 | 37 | 1016.7 |
| 20260906204152 | 91 | 292 | 0.9 | 7.0 | 0.00 | 0.00 | 0.00 | 36 | 1016.7 |
| 20260906203628 | 91 | 79 | 2.6 | 7.0 | 0.00 | 0.00 | 0.00 | 37 | 1016.7 |
| 20260906203321 | 90 | 38 | 1.7 | 4.3 | 0.00 | 0.00 | 0.00 | 36 | 1016.7 |
| 20260906203104 | 90 | 234 | 0.9 | 4.3 | 0.00 | 0.00 | 0.00 | 35 | 1017.0 |
| 20260906202542 | 90 | 261 | 0.9 | 4.3 | 0.00 | 0.00 | 0.00 | 36 | 1017.0 |
| 20260906202300 | 90 | 252 | 1.7 | 7.0 | 0.00 | 0.00 | 0.00 | 36 | 1017.0 |
| 20260906202016 | 89 | 276 | 0.0 | 7.0 | 0.00 | 0.00 | 0.00 | 36 | 1016.7 |
| 20260906201723 | 89 | 287 | 0.9 | 4.3 | 0.00 | 0.00 | 0.00 | 38 | 1017.0 |
| 20260906201244 | 89 | 271 | 1.7 | 4.3 | 0.00 | 0.00 | 0.00 | 37 | 1017.0 |
| 20260906200941 | 89 | 86 | 3.5 | 4.3 | 0.00 | 0.00 | 0.00 | 37 | 1017.0 |
| 20260906200431 | 89 | 205 | 0.0 | 4.3 | 0.00 | 0.00 | 0.00 | 37 | 1017.0 |
| 20260906200217 | 88 | 115 | 0.0 | 7.0 | 0.00 | 0.00 | 0.00 | 37 | 1017.4 |
| 20260906195841 | 88 | 240 | 1.7 | 7.0 | 0.00 | 0.00 | 0.00 | 38 | 1017.0 |
| 20260906195316 | 88 | 219 | 1.7 | 4.3 | 0.00 | 0.00 | 0.00 | 39 | 1017.4 |
| 20260906195142 | 88 | 219 | 0.9 | 4.3 | 0.00 | 0.00 | 0.00 | 39 | 1017.0 |
| 20260906194752 | 88 | 124 | 1.7 | 4.3 | 0.00 | 0.00 | 0.00 | 38 | 1017.4 |
| 20260906194228 | 88 | 16 | 3.5 | 4.3 | 0.00 | 0.00 | 0.00 | 38 | 1017.4 |
| 20260906194136 | 88 | 125 | 0.9 | 4.3 | 0.00 | 0.00 | 0.00 | 38 | 1017.4 |
| 20260906193704 | 88 | 184 | 0.9 | 7.0 | 0.00 | 0.00 | 0.00 | 40 | 1017.4 |
| 20260906193142 | 88 | 68 | 5.2 | 7.0 | 0.00 | 0.00 | 0.00 | 39 | 1017.4 |
| 20260906193114 | 88 | 71 | 2.6 | 4.3 | 0.00 | 0.00 | 0.00 | 40 | 1017.4 |
| 20260906192616 | 87 | 261 | 1.7 | 4.3 | 0.00 | 0.00 | 0.00 | 38 | 1017.4 |
| 20260906192053 | 86 | 170 | 0.0 | 4.3 | 0.00 | 0.00 | 0.00 | 39 | 1017.4 |
| 20260906191541 | 86 | 261 | 1.7 | 4.3 | 0.00 | 0.00 | 0.00 | 40 | 1017.8 |
| 20260906191032 | 86 | 83 | 0.0 | 7.0 | 0.00 | 0.00 | 0.00 | 41 | 1017.4 |
| 20260906190507 | 85 | 68 | 1.7 | 7.0 | 0.00 | 0.00 | 0.00 | 43 | 1017.8 |
| 20260906185942 | 85 | 78 | 3.5 | 7.0 | 0.00 | 0.00 | 0.00 | 43 | 1017.8 |
| 20260906185916 | 85 | 67 | 4.3 | 7.0 | 0.00 | 0.00 | 0.00 | 44 | 1017.8 |
| 20260906185352 | 85 | 165 | 0.9 | 7.0 | 0.00 | 0.00 | 0.00 | 45 | 1017.8 |
| 20260906184924 | 85 | 95 | 1.7 | 4.3 | 0.00 | 0.00 | 0.00 | 45 | 1018.2 |
| 20260906184841 | 85 | 62 | 0.9 | 4.3 | 0.00 | 0.00 | 0.00 | 46 | 1018.2 |
| 20260906184332 | 85 | 73 | 1.7 | 4.3 | 0.00 | 0.00 | 0.00 | 46 | 1018.7 |
| 20260906183922 | 85 | 76 | 2.6 | 4.3 | 0.00 | 0.00 | 0.00 | 47 | 1018.7 |
| 20260906183808 | 85 | 86 | 3.5 | 4.3 | 0.00 | 0.00 | 0.00 | 45 | 1018.7 |
| 20260906183447 | 84 | 187 | 0.0 | 4.3 | 0.00 | 0.00 | 0.00 | 45 | 1018.7 |
| 20260906182908 | 84 | 160 | 0.0 | 4.3 | 0.00 | 0.00 | 0.00 | 47 | 1018.7 |
| 20260906182651 | 84 | 100 | 1.7 | 4.3 | 0.00 | 0.00 | 0.00 | 46 | 1018.7 |
| 20260906182142 | 84 | 83 | 1.7 | 4.3 | 0.00 | 0.00 | 0.00 | 45 | 1019.0 |
| 20260906181821 | 84 | 174 | 0.0 | 4.3 | 0.00 | 0.00 | 0.00 | 48 | 1018.7 |
| 20260906181631 | 84 | 197 | 0.0 | 4.3 | 0.00 | 0.00 | 0.00 | 47 | 1018.7 |
| 20260906181107 | 84 | 89 | 3.5 | 4.3 | 0.00 | 0.00 | 0.00 | 47 | 1018.7 |
| 20260906180800 | 84 | 119 | 2.6 | 4.3 | 0.00 | 0.00 | 0.00 | 44 | 1018.7 |
| 20260906180516 | 84 | 232 | 0.9 | 4.3 | 0.00 | 0.00 | 0.00 | 45 | 1019.0 |
| 20260906175952 | 84 | 74 | 0.0 | 4.3 | 0.00 | 0.00 | 0.00 | 45 | 1019.0 |
| 20260906175739 | 84 | 272 | 0.9 | 4.3 | 0.00 | 0.00 | 0.00 | 44 | 1019.0 |
| 20260906175428 | 83 | 76 | 1.7 | 4.3 | 0.00 | 0.00 | 0.00 | 44 | 1019.0 |
| 20260906174904 | 83 | 153 | 0.0 | 4.3 | 0.00 | 0.00 | 0.00 | 44 | 1019.4 |
| 20260906174716 | 83 | 71 | 2.6 | 7.0 | 0.00 | 0.00 | 0.00 | 46 | 1019.4 |
| 20260906174341 | 82 | 192 | 0.0 | 7.0 | 0.00 | 0.00 | 0.00 | 46 | 1019.4 |
| 20260906174047 | 82 | 129 | 0.0 | 4.3 | 0.00 | 0.00 | 0.00 | 47 | 1019.8 |
| 20260906173642 | 82 | 117 | 0.9 | 4.3 | 0.00 | 0.00 | 0.00 | 47 | 1019.8 |
| 20260906173252 | 82 | 135 | 0.9 | 4.3 | 0.00 | 0.00 | 0.00 | 44 | 1019.8 |
| 20260906172741 | 81 | 144 | 1.7 | 4.3 | 0.00 | 0.00 | 0.00 | 49 | 1019.8 |
| 20260906172635 | 81 | 55 | 2.6 | 4.3 | 0.00 | 0.00 | 0.00 | 49 | 1019.8 |
| 20260906172231 | 81 | 160 | 0.9 | 4.3 | 0.00 | 0.00 | 0.00 | 49 | 1019.8 |
| 20260906171707 | 81 | 90 | 1.7 | 4.3 | 0.00 | 0.00 | 0.00 | 50 | 1019.8 |
| 20260906171615 | 81 | 6 | 0.9 | 4.3 | 0.00 | 0.00 | 0.00 | 49 | 1019.8 |
| 20260906171116 | 81 | 86 | 2.6 | 4.3 | 0.00 | 0.00 | 0.00 | 51 | 1019.8 |
| 20260906170553 | 81 | 196 | 1.7 | 4.3 | 0.00 | 0.00 | 0.00 | 53 | 1020.2 |
| 20260906170041 | 81 | 78 | 4.3 | 4.3 | 0.00 | 0.00 | 0.00 | 53 | 1020.2 |
| 20260906165804 | 80 | 67 | 0.9 | 1.7 | 0.00 | 0.00 | 0.00 | 51 | 1020.2 |
| 20260906165637 | 80 | 67 | 0.9 | 1.7 | 0.00 | 0.00 | 0.00 | 51 | 1020.2 |
| 20260906165007 | 79 | 337 | 0.0 | 1.7 | 0.00 | 0.00 | 0.00 | 51 | 1020.5 |
| 20260906164511 | 78 | 89 | 0.0 | 4.3 | 0.00 | 0.00 | 0.00 | 50 | 1020.2 |
| 20260906164416 | 78 | 93 | 0.0 | 4.3 | 0.00 | 0.00 | 0.00 | 50 | 1020.2 |
| 20260906163852 | 77 | 88 | 0.0 | 4.3 | 0.00 | 0.00 | 0.00 | 48 | 1020.2 |
| 20260906163451 | 77 | 215 | 1.7 | 4.3 | 0.00 | 0.00 | 0.00 | 52 | 1020.5 |
| 20260906163341 | 77 | 107 | 0.0 | 4.3 | 0.00 | 0.00 | 0.00 | 53 | 1020.2 |
| 20260906163102 | 76 | 194 | 0.0 | 4.3 | 0.00 | 0.00 | 0.00 | 58 | 1020.2 |
| 20260906162442 | 76 | 228 | 0.0 | 4.3 | 0.00 | 0.00 | 0.00 | 58 | 1020.2 |
| 20260906162307 | 76 | 167 | 0.0 | 4.3 | 0.00 | 0.00 | 0.00 | 60 | 1019.8 |
| 20260906161716 | 77 | 97 | 0.0 | 1.7 | 0.00 | 0.00 | 0.00 | 61 | 1020.2 |
| 20260906161435 | 77 | 163 | 0.0 | 1.7 | 0.00 | 0.00 | 0.00 | 61 | 1020.2 |
| 20260906161152 | 77 | 169 | 0.0 | 1.7 | 0.00 | 0.00 | 0.00 | 62 | 1020.2 |
| 20260906160859 | 77 | 246 | 0.0 | 4.3 | 0.00 | 0.00 | 0.00 | 59 | 1020.2 |
| 20260906160415 | 77 | 219 | 0.0 | 4.3 | 0.00 | 0.00 | 0.00 | 60 | 1020.2 |
| 20260906160105 | 76 | 217 | 0.9 | 4.3 | 0.00 | 0.00 | 0.00 | 56 | 1020.2 |
| 20260906155542 | 76 | 148 | 0.0 | 4.3 | 0.00 | 0.00 | 0.00 | 60 | 1020.2 |
| 20260906155353 | 76 | 68 | 0.9 | 4.3 | 0.00 | 0.00 | 0.00 | 60 | 1020.2 |
| 20260906155016 | 75 | 94 | 0.0 | 4.3 | 0.00 | 0.00 | 0.00 | 60 | 1020.2 |
| 20260906154452 | 75 | 73 | 0.0 | 1.7 | 0.00 | 0.00 | 0.00 | 60 | 1020.2 |
| 20260906154305 | 75 | 200 | 0.0 | 1.7 | 0.00 | 0.00 | 0.00 | 61 | 1020.2 |
| 20260906153941 | 74 | 111 | 0.9 | 1.7 | 0.00 | 0.00 | 0.00 | 61 | 1020.5 |
| 20260906153431 | 74 | 254 | 0.0 | 1.7 | 0.00 | 0.00 | 0.00 | 62 | 1020.2 |
| 20260906153217 | 74 | 88 | 1.7 | 1.7 | 0.00 | 0.00 | 0.00 | 62 | 1020.2 |
| 20260906152907 | 74 | 250 | 0.9 | 1.7 | 0.00 | 0.00 | 0.00 | 62 | 1020.2 |
| 20260906152316 | 73 | 225 | 0.0 | 1.7 | 0.00 | 0.00 | 0.00 | 65 | 1020.2 |
| 20260906152254 | 73 | 243 | 0.0 | 1.7 | 0.00 | 0.00 | 0.00 | 64 | 1020.2 |
| 20260906152142 | 73 | 212 | 0.0 | 1.7 | 0.00 | 0.00 | 0.00 | 64 | 1020.2 |
| 20260906151241 | 72 | 187 | 0.9 | 1.7 | 0.00 | 0.00 | 0.00 | 65 | 1020.2 |
| 20260906151108 | 72 | 179 | 0.0 | 1.7 | 0.00 | 0.00 | 0.00 | 66 | 1020.5 |
| 20260906150732 | 71 | 280 | 0.0 | 1.7 | 0.00 | 0.00 | 0.00 | 67 | 1020.5 |
| 20260906150207 | 71 | 296 | 1.7 | 1.7 | 0.00 | 0.00 | 0.00 | 69 | 1020.5 |
| 20260906150020 | 70 | 212 | 0.0 | 1.7 | 0.00 | 0.00 | 0.00 | 69 | 1020.2 |
| 20260906145616 | 70 | 160 | 0.9 | 1.7 | 0.00 | 0.00 | 0.00 | 68 | 1020.5 |
| 20260906145052 | 69 | 226 | 0.0 | 1.7 | 0.00 | 0.00 | 0.00 | 70 | 1020.5 |
| 20260906145000 | 69 | 208 | 0.0 | 1.7 | 0.00 | 0.00 | 0.00 | 70 | 1020.5 |
| 20260906144541 | 69 | 278 | 1.7 | 1.7 | 0.00 | 0.00 | 0.00 | 72 | 1020.5 |
| 20260906144031 | 69 | 204 | 0.0 | 1.7 | 0.00 | 0.00 | 0.00 | 75 | 1020.5 |
| 20260906143939 | 69 | 202 | 0.0 | 1.7 | 0.00 | 0.00 | 0.00 | 75 | 1020.2 |
| 20260906143507 | 69 | 193 | 0.0 | 1.7 | 0.00 | 0.00 | 0.00 | 76 | 1020.5 |
| 20260906142917 | 69 | 204 | 0.0 | 1.7 | 0.00 | 0.00 | 0.00 | 74 | 1020.5 |
| 20260906142352 | 69 | 100 | 0.9 | 1.7 | 0.00 | 0.00 | 0.00 | 74 | 1020.5 |
| 20260906142058 | 68 | 116 | 0.0 | 1.7 | 0.00 | 0.00 | 0.00 | 73 | 1020.5 |
| 20260906141933 | 68 | 242 | 0.0 | 1.7 | 0.00 | 0.00 | 0.00 | 73 | 1020.5 |
| 20260906141305 | 67 | 204 | 0.0 | 1.7 | 0.00 | 0.00 | 0.00 | 73 | 1020.2 |
| 20260906140835 | 66 | 195 | 0.0 | 1.7 | 0.00 | 0.00 | 0.00 | 75 | 1020.5 |
| 20260906140741 | 66 | 270 | 0.0 | 1.7 | 0.00 | 0.00 | 0.00 | 75 | 1020.5 |
| 20260906140216 | 65 | 230 | 0.0 | 1.7 | 0.00 | 0.00 | 0.00 | 75 | 1020.2 |
| 20260906135815 | 64 | 148 | 0.0 | 1.7 | 0.00 | 0.00 | 0.00 | 75 | 1020.2 |
| 20260906135652 | 64 | 309 | 0.0 | 1.7 | 0.00 | 0.00 | 0.00 | 76 | 1020.2 |
| 20260906135141 | 63 | 211 | 0.0 | 1.7 | 0.00 | 0.00 | 0.00 | 78 | 1020.2 |
| 20260906134753 | 62 | 274 | 0.9 | 1.7 | 0.00 | 0.00 | 0.00 | 79 | 1020.2 |
| 20260906134631 | 62 | 201 | 0.0 | 1.7 | 0.00 | 0.00 | 0.00 | 79 | 1020.2 |
| 20260906134107 | 62 | 197 | 0.0 | 1.7 | 0.00 | 0.00 | 0.00 | 83 | 1020.5 |
| 20260906133705 | 61 | 199 | 0.0 | 0.0 | 0.00 | 0.00 | 0.00 | 84 | 1020.5 |
| 20260906133516 | 61 | 195 | 0.0 | 1.7 | 0.00 | 0.00 | 0.00 | 84 | 1020.2 |
| 20260906132952 | 61 | 199 | 0.0 | 1.7 | 0.00 | 0.00 | 0.00 | 86 | 1020.2 |
| 20260906132617 | 61 | 154 | 0.0 | 1.7 | 0.00 | 0.00 | 0.00 | 87 | 1020.2 |
| 20260906132428 | 61 | 192 | 0.0 | 0.0 | 0.00 | 0.00 | 0.00 | 87 | 1020.2 |
| 20260906132135 | 60 | 188 | 0.0 | 0.0 | 0.00 | 0.00 | 0.00 | 87 | 1020.2 |
| 20260906131612 | 60 | 198 | 0.0 | 0.0 | 0.00 | 0.00 | 0.00 | 87 | 1020.2 |
| 20260906131542 | 60 | 197 | 0.0 | 0.0 | 0.00 | 0.00 | 0.00 | 87 | 1020.2 |
| 20260906130841 | 60 | 194 | 0.0 | 0.0 | 0.00 | 0.00 | 0.00 | 88 | 1020.2 |
| 20260906130515 | 60 | 212 | 0.0 | 0.0 | 0.00 | 0.00 | 0.00 | 88 | 1020.2 |
| 20260906130508 | 60 | 195 | 0.0 | 0.0 | 0.00 | 0.00 | 0.00 | 88 | 1020.2 |
| 20260906130348 | 60 | 197 | 0.0 | 0.0 | 0.00 | 0.00 | 0.00 | 88 | 1020.2 |
| 20260906125421 | 60 | 196 | 0.0 | 0.0 | 0.00 | 0.00 | 0.00 | 88 | 1020.2 |
| 20260906125231 | 60 | 196 | 0.0 | 0.0 | 0.00 | 0.00 | 0.00 | 88 | 1019.8 |
| 20260906124647 | 60 | 196 | 0.0 | 0.0 | 0.00 | 0.00 | 0.00 | 87 | 1019.8 |
| 20260906124400 | 60 | 196 | 0.0 | 0.0 | 0.00 | 0.00 | 0.00 | 87 | 1019.8 |
| 20260906124116 | 60 | 197 | 0.0 | 0.0 | 0.00 | 0.00 | 0.00 | 87 | 1019.8 |
| 20260906123824 | 60 | 196 | 0.0 | 0.0 | 0.00 | 0.00 | 0.00 | 86 | 1019.8 |
| 20260906123339 | 60 | 195 | 0.0 | 0.0 | 0.00 | 0.00 | 0.00 | 86 | 1019.8 |
| 20260906123041 | 60 | 196 | 0.0 | 0.0 | 0.00 | 0.00 | 0.00 | 86 | 1020.2 |
| 20260906122504 | 60 | 196 | 0.0 | 0.0 | 0.00 | 0.00 | 0.00 | 85 | 1019.8 |
| 20260906122317 | 60 | 196 | 0.0 | 0.0 | 0.00 | 0.00 | 0.00 | 85 | 1019.8 |
| 20260906121941 | 60 | 200 | 0.0 | 0.0 | 0.00 | 0.00 | 0.00 | 85 | 1019.8 |
| 20260906121416 | 60 | 192 | 0.0 | 0.0 | 0.00 | 0.00 | 0.00 | 84 | 1019.8 |
| 20260906121242 | 60 | 191 | 0.0 | 0.0 | 0.00 | 0.00 | 0.00 | 85 | 1019.8 |
| 20260906120851 | 60 | 198 | 0.0 | 0.0 | 0.00 | 0.00 | 0.00 | 84 | 1019.8 |
| 20260906120340 | 60 | 195 | 0.0 | 0.0 | 0.00 | 0.00 | 0.00 | 84 | 1019.8 |
| 20260906120236 | 60 | 196 | 0.0 | 0.0 | 0.00 | 0.00 | 0.00 | 84 | 1019.8 |
| 20260906115841 | 60 | 202 | 0.0 | 0.0 | 0.00 | 0.00 | 0.00 | 84 | 1019.8 |
| 20260906115307 | 60 | 196 | 0.0 | 0.0 | 0.00 | 0.00 | 0.00 | 83 | 1019.8 |
| 20260906115215 | 60 | 196 | 0.0 | 0.0 | 0.00 | 0.00 | 0.00 | 83 | 1020.2 |
| 20260906114716 | 60 | 198 | 0.0 | 0.0 | 0.00 | 0.00 | 0.00 | 82 | 1019.8 |
| 20260906114153 | 60 | 199 | 0.0 | 0.0 | 0.00 | 0.00 | 0.00 | 82 | 1019.8 |
| 20260906113628 | 60 | 195 | 0.0 | 0.0 | 0.00 | 0.00 | 0.00 | 82 | 1019.8 |
| 20260906113606 | 61 | 184 | 0.0 | 0.0 | 0.00 | 0.00 | 0.00 | 82 | 1019.8 |
| 20260906113209 | 61 | 184 | 0.0 | 0.0 | 0.00 | 0.00 | 0.00 | 82 | 1019.8 |
| 20260906112541 | 61 | 203 | 0.0 | 0.0 | 0.00 | 0.00 | 0.00 | 83 | 1019.8 |
| 20260906112016 | 61 | 198 | 0.0 | 0.0 | 0.00 | 0.00 | 0.00 | 82 | 1019.8 |
| 20260906111452 | 61 | 198 | 0.0 | 0.0 | 0.00 | 0.00 | 0.00 | 82 | 1019.8 |
| 20260906110942 | 61 | 198 | 0.0 | 0.0 | 0.00 | 0.00 | 0.00 | 81 | 1019.4 |
| 20260906110431 | 61 | 196 | 0.0 | 0.0 | 0.00 | 0.00 | 0.00 | 80 | 1019.8 |
| 20260906105907 | 61 | 195 | 0.0 | 0.0 | 0.00 | 0.00 | 0.00 | 80 | 1019.8 |
| 20260906105341 | 62 | 213 | 0.0 | 0.0 | 0.00 | 0.00 | 0.00 | 80 | 1019.8 |
| 20260906104819 | 62 | 203 | 0.0 | 0.0 | 0.00 | 0.00 | 0.00 | 80 | 1019.8 |
| 20260906104228 | 62 | 198 | 0.0 | 0.0 | 0.00 | 0.00 | 0.00 | 80 | 1019.8 |
| 20260906103759 | 62 | 193 | 0.0 | 0.0 | 0.00 | 0.00 | 0.00 | 80 | 1019.8 |
| 20260906103704 | 62 | 195 | 0.0 | 0.0 | 0.00 | 0.00 | 0.00 | 80 | 1019.8 |
| 20260906103412 | 62 | 187 | 0.0 | 0.0 | 0.00 | 0.00 | 0.00 | 80 | 1019.4 |
| 20260906102738 | 62 | 193 | 0.0 | 0.0 | 0.00 | 0.00 | 0.00 | 80 | 1019.8 |
| 20260906102616 | 62 | 195 | 0.0 | 0.0 | 0.00 | 0.00 | 0.00 | 80 | 1019.4 |
| 20260906102553 | 62 | 194 | 0.0 | 0.0 | 0.00 | 0.00 | 0.00 | 80 | 1019.8 |
| 20260906101716 | 63 | 195 | 0.0 | 0.0 | 0.00 | 0.00 | 0.00 | 80 | 1019.4 |
| 20260906101541 | 63 | 195 | 0.0 | 0.0 | 0.00 | 0.00 | 0.00 | 80 | 1019.4 |
| 20260906101031 | 63 | 198 | 0.0 | 0.0 | 0.00 | 0.00 | 0.00 | 79 | 1019.8 |
| 20260906100628 | 63 | 195 | 0.0 | 0.0 | 0.00 | 0.00 | 0.00 | 79 | 1019.4 |
| 20260906100507 | 63 | 197 | 0.0 | 0.0 | 0.00 | 0.00 | 0.00 | 79 | 1019.4 |
| 20260906095915 | 63 | 197 | 0.0 | 0.0 | 0.00 | 0.00 | 0.00 | 78 | 1019.4 |
| 20260906095623 | 63 | 204 | 0.0 | 0.0 | 0.00 | 0.00 | 0.00 | 77 | 1019.8 |
| 20260906095613 | 63 | 200 | 0.0 | 0.0 | 0.00 | 0.00 | 0.00 | 78 | 1019.8 |
| 20260906094828 | 64 | 191 | 0.0 | 0.0 | 0.00 | 0.00 | 0.00 | 77 | 1019.8 |
| 20260906094614 | 64 | 188 | 0.0 | 0.0 | 0.00 | 0.00 | 0.00 | 77 | 1019.8 |
| 20260906094304 | 64 | 191 | 0.0 | 0.0 | 0.00 | 0.00 | 0.00 | 76 | 1019.4 |
| 20260906093741 | 64 | 188 | 0.0 | 0.0 | 0.00 | 0.00 | 0.00 | 76 | 1019.8 |
| 20260906093553 | 64 | 197 | 0.0 | 0.0 | 0.00 | 0.00 | 0.00 | 75 | 1019.8 |
| 20260906093241 | 64 | 197 | 0.0 | 0.0 | 0.00 | 0.00 | 0.00 | 75 | 1019.8 |
| 20260906092652 | 65 | 213 | 0.0 | 0.0 | 0.00 | 0.00 | 0.00 | 74 | 1019.4 |
| 20260906092505 | 65 | 211 | 0.0 | 0.0 | 0.00 | 0.00 | 0.00 | 73 | 1019.4 |
| 20260906092412 | 65 | 199 | 0.0 | 0.0 | 0.00 | 0.00 | 0.00 | 73 | 1019.4 |
| 20260906091631 | 65 | 199 | 0.0 | 0.0 | 0.00 | 0.00 | 0.00 | 70 | 1019.4 |
| 20260906091417 | 66 | 199 | 0.0 | 0.0 | 0.00 | 0.00 | 0.00 | 69 | 1019.4 |
| 20260906091106 | 66 | 199 | 0.0 | 0.0 | 0.00 | 0.00 | 0.00 | 68 | 1019.4 |
| 20260906090516 | 67 | 210 | 0.0 | 1.7 | 0.00 | 0.00 | 0.00 | 67 | 1019.4 |
| 20260906090342 | 67 | 195 | 0.0 | 1.7 | 0.00 | 0.00 | 0.00 | 66 | 1019.0 |
| 20260906085952 | 67 | 186 | 0.0 | 1.7 | 0.00 | 0.00 | 0.00 | 65 | 1019.0 |
| 20260906085441 | 67 | 135 | 0.0 | 0.0 | 0.00 | 0.00 | 0.00 | 64 | 1019.4 |
| 20260906085335 | 67 | 165 | 0.0 | 0.0 | 0.00 | 0.00 | 0.00 | 64 | 1019.4 |
| 20260906084932 | 67 | 228 | 0.0 | 0.0 | 0.00 | 0.00 | 0.00 | 61 | 1019.0 |
| 20260906084406 | 68 | 211 | 0.0 | 1.7 | 0.00 | 0.00 | 0.00 | 59 | 1019.0 |
| 20260906084315 | 68 | 197 | 0.0 | 1.7 | 0.00 | 0.00 | 0.00 | 59 | 1019.0 |
| 20260906083816 | 68 | 206 | 0.0 | 1.7 | 0.00 | 0.00 | 0.00 | 57 | 1019.0 |
| 20260906083253 | 68 | 160 | 0.0 | 1.7 | 0.00 | 0.00 | 0.00 | 55 | 1018.7 |
| 20260906083012 | 68 | 161 | 0.0 | 0.0 | 0.00 | 0.00 | 0.00 | 55 | 1018.7 |
| 20260906082232 | 68 | 183 | 0.0 | 0.0 | 0.00 | 0.00 | 0.00 | 55 | 1018.7 |
| 20260906081707 | 67 | 161 | 0.0 | 1.7 | 0.00 | 0.00 | 0.00 | 54 | 1019.0 |
| 20260906081142 | 67 | 70 | 0.0 | 1.7 | 0.00 | 0.00 | 0.00 | 55 | 1018.7 |
| 20260906081116 | 67 | 200 | 0.0 | 0.0 | 0.00 | 0.00 | 0.00 | 55 | 1018.7 |
| 20260906080824 | 67 | 218 | 0.0 | 0.0 | 0.00 | 0.00 | 0.00 | 54 | 1019.0 |
| 20260906080123 | 67 | 213 | 0.0 | 0.0 | 0.00 | 0.00 | 0.00 | 54 | 1018.7 |
| 20260906080028 | 67 | 218 | 0.0 | 0.0 | 0.00 | 0.00 | 0.00 | 55 | 1018.7 |
| 20260906075504 | 67 | 210 | 0.0 | 0.0 | 0.00 | 0.00 | 0.00 | 55 | 1019.0 |
| 20260906075121 | 67 | 210 | 0.0 | 0.0 | 0.00 | 0.00 | 0.00 | 55 | 1019.0 |
| 20260906074940 | 67 | 210 | 0.0 | 0.0 | 0.00 | 0.00 | 0.00 | 55 | 1018.7 |
| 20260906074415 | 68 | 210 | 0.0 | 0.0 | 0.00 | 0.00 | 0.00 | 55 | 1018.7 |
| 20260906074108 | 68 | 210 | 0.0 | 0.0 | 0.00 | 0.00 | 0.00 | 55 | 1018.7 |
| 20260906073852 | 68 | 210 | 0.0 | 0.0 | 0.00 | 0.00 | 0.00 | 55 | 1019.0 |
| 20260906073341 | 68 | 210 | 0.0 | 0.0 | 0.00 | 0.00 | 0.00 | 55 | 1018.7 |
| 20260906073021 | 68 | 210 | 0.0 | 0.0 | 0.00 | 0.00 | 0.00 | 55 | 1019.0 |
| 20260906072831 | 68 | 210 | 0.0 | 0.0 | 0.00 | 0.00 | 0.00 | 56 | 1019.0 |
| 20260906072306 | 68 | 213 | 0.0 | 0.0 | 0.00 | 0.00 | 0.00 | 56 | 1018.7 |
| 20260906072000 | 68 | 210 | 0.0 | 0.0 | 0.00 | 0.00 | 0.00 | 56 | 1018.7 |
| 20260906071716 | 68 | 210 | 0.0 | 0.0 | 0.00 | 0.00 | 0.00 | 55 | 1018.7 |
| 20260906071151 | 69 | 209 | 0.0 | 0.0 | 0.00 | 0.00 | 0.00 | 55 | 1019.0 |
| 20260906070939 | 69 | 210 | 0.0 | 0.0 | 0.00 | 0.00 | 0.00 | 54 | 1019.0 |
| 20260906070628 | 69 | 218 | 0.0 | 0.0 | 0.00 | 0.00 | 0.00 | 54 | 1019.0 |
| 20260906070104 | 69 | 214 | 0.0 | 0.0 | 0.00 | 0.00 | 0.00 | 54 | 1019.0 |
| 20260906065916 | 69 | 214 | 0.0 | 0.0 | 0.00 | 0.00 | 0.00 | 53 | 1019.0 |
| 20260906065811 | 70 | 214 | 0.0 | 0.0 | 0.00 | 0.00 | 0.00 | 54 | 1019.0 |
| 20260906065015 | 70 | 214 | 0.0 | 0.0 | 0.00 | 0.00 | 0.00 | 52 | 1019.0 |
| 20260906064841 | 70 | 214 | 0.0 | 0.0 | 0.00 | 0.00 | 0.00 | 53 | 1019.0 |
| 20260906064722 | 70 | 215 | 0.0 | 0.0 | 0.00 | 0.00 | 0.00 | 53 | 1019.0 |
| 20260906063941 | 71 | 213 | 0.0 | 0.0 | 0.00 | 0.00 | 0.00 | 52 | 1019.4 |
| 20260906063835 | 71 | 211 | 0.0 | 0.0 | 0.00 | 0.00 | 0.00 | 52 | 1019.0 |
| 20260906063431 | 71 | 211 | 0.0 | 0.0 | 0.00 | 0.00 | 0.00 | 51 | 1019.0 |
| 20260906062847 | 72 | 211 | 0.0 | 0.0 | 0.00 | 0.00 | 0.00 | 51 | 1019.4 |
| 20260906062814 | 72 | 211 | 0.0 | 0.0 | 0.00 | 0.00 | 0.00 | 51 | 1019.4 |
| 20260906062316 | 72 | 211 | 0.0 | 0.0 | 0.00 | 0.00 | 0.00 | 50 | 1019.0 |
| 20260906061752 | 72 | 214 | 0.0 | 0.0 | 0.00 | 0.00 | 0.00 | 50 | 1019.0 |
| 20260906061228 | 72 | 200 | 0.0 | 0.0 | 0.00 | 0.00 | 0.00 | 49 | 1019.0 |
| 20260906060936 | 72 | 200 | 0.0 | 0.0 | 0.00 | 0.00 | 0.00 | 49 | 1019.0 |
| 20260906060809 | 72 | 200 | 0.0 | 0.0 | 0.00 | 0.00 | 0.00 | 49 | 1019.0 |
| 20260906060141 | 73 | 206 | 0.0 | 0.0 | 0.00 | 0.00 | 0.00 | 49 | 1019.0 |
| 20260906055616 | 73 | 211 | 0.0 | 0.0 | 0.00 | 0.00 | 0.00 | 48 | 1018.7 |
| 20260906055052 | 73 | 208 | 0.0 | 0.0 | 0.00 | 0.00 | 0.00 | 48 | 1018.7 |
| 20260906054812 | 73 | 188 | 0.0 | 0.0 | 0.00 | 0.00 | 0.00 | 47 | 1018.7 |
| 20260906054645 | 73 | 188 | 0.0 | 0.0 | 0.00 | 0.00 | 0.00 | 47 | 1018.7 |
| 20260906054303 | 73 | 209 | 0.0 | 0.0 | 0.00 | 0.00 | 0.00 | 47 | 1018.7 |
| 20260906053739 | 73 | 206 | 0.0 | 0.0 | 0.00 | 0.00 | 0.00 | 46 | 1019.0 |
| 20260906053612 | 73 | 206 | 0.0 | 0.0 | 0.00 | 0.00 | 0.00 | 46 | 1019.0 |
| 20260906052916 | 73 | 211 | 0.0 | 0.0 | 0.00 | 0.00 | 0.00 | 45 | 1019.4 |
| 20260906052623 | 73 | 209 | 0.0 | 0.0 | 0.00 | 0.00 | 0.00 | 44 | 1019.8 |
| 20260906052457 | 73 | 223 | 0.0 | 0.0 | 0.00 | 0.00 | 0.00 | 45 | 1019.8 |
| 20260906052058 | 72 | 205 | 0.0 | 1.7 | 0.00 | 0.00 | 0.00 | 45 | 1019.8 |
| 20260906051400 | 72 | 203 | 0.0 | 1.7 | 0.00 | 0.00 | 0.00 | 44 | 1019.8 |
| 20260906051304 | 72 | 196 | 0.0 | 1.7 | 0.00 | 0.00 | 0.00 | 44 | 1019.8 |
| 20260906050741 | 72 | 150 | 0.0 | 1.7 | 0.00 | 0.00 | 0.00 | 46 | 1019.8 |
| 20260906050339 | 72 | 176 | 0.0 | 0.0 | 0.00 | 0.00 | 0.00 | 47 | 1019.8 |
| 20260906050215 | 72 | 173 | 0.0 | 0.0 | 0.00 | 0.00 | 0.00 | 48 | 1019.8 |
| 20260906045651 | 71 | 186 | 0.0 | 0.0 | 0.00 | 0.00 | 0.00 | 48 | 1019.8 |
| 20260906045316 | 71 | 177 | 0.0 | 0.0 | 0.00 | 0.00 | 0.00 | 47 | 1019.0 |
| 20260906045140 | 71 | 184 | 0.0 | 0.0 | 0.00 | 0.00 | 0.00 | 48 | 1019.0 |
| 20260906044631 | 71 | 203 | 0.0 | 0.0 | 0.00 | 0.00 | 0.00 | 48 | 1019.0 |
| 20260906044242 | 71 | 203 | 0.0 | 0.0 | 0.00 | 0.00 | 0.00 | 47 | 1019.0 |
| 20260906044107 | 72 | 205 | 0.0 | 0.0 | 0.00 | 0.00 | 0.00 | 48 | 1019.0 |
| 20260906043515 | 72 | 207 | 0.0 | 0.0 | 0.00 | 0.00 | 0.00 | 48 | 1019.0 |
| 20260906043234 | 72 | 220 | 0.0 | 0.0 | 0.00 | 0.00 | 0.00 | 48 | 1018.7 |
| 20260906042951 | 72 | 215 | 0.0 | 0.0 | 0.00 | 0.00 | 0.00 | 48 | 1018.7 |
| 20260906042427 | 72 | 204 | 0.0 | 0.0 | 0.00 | 0.00 | 0.00 | 48 | 1019.0 |
| 20260906042215 | 72 | 204 | 0.0 | 0.0 | 0.00 | 0.00 | 0.00 | 48 | 1019.0 |
| 20260906042134 | 72 | 202 | 0.0 | 0.0 | 0.00 | 0.00 | 0.00 | 48 | 1018.7 |
| 20260906041341 | 72 | 205 | 0.0 | 1.7 | 0.00 | 0.00 | 0.00 | 47 | 1018.7 |
| 20260906041152 | 72 | 205 | 0.0 | 1.7 | 0.00 | 0.00 | 0.00 | 47 | 1018.7 |
| 20260906041046 | 72 | 213 | 0.0 | 1.7 | 0.00 | 0.00 | 0.00 | 46 | 1018.7 |
| 20260906040251 | 72 | 190 | 0.0 | 1.7 | 0.00 | 0.00 | 0.00 | 47 | 1018.7 |
| 20260906040104 | 72 | 83 | 0.9 | 1.7 | 0.00 | 0.00 | 0.00 | 47 | 1018.7 |
| 20260906035702 | 72 | 203 | 0.0 | 1.7 | 0.00 | 0.00 | 0.00 | 47 | 1018.7 |
| 20260906035138 | 72 | 235 | 0.9 | 1.7 | 0.00 | 0.00 | 0.00 | 47 | 1018.2 |
| 20260906035016 | 72 | 198 | 0.0 | 0.0 | 0.00 | 0.00 | 0.00 | 46 | 1018.7 |
| 20260906034613 | 73 | 201 | 0.0 | 0.0 | 0.00 | 0.00 | 0.00 | 46 | 1018.2 |
| 20260906034055 | 73 | 204 | 0.0 | 0.0 | 0.00 | 0.00 | 0.00 | 46 | 1018.2 |
| 20260906033942 | 73 | 204 | 0.0 | 0.0 | 0.00 | 0.00 | 0.00 | 46 | 1018.2 |
| 20260906033551 | 73 | 197 | 0.0 | 0.0 | 0.00 | 0.00 | 0.00 | 45 | 1018.2 |
| 20260906033259 | 73 | 193 | 0.0 | 0.0 | 0.00 | 0.00 | 0.00 | 45 | 1017.8 |
| 20260906032936 | 73 | 187 | 0.0 | 0.0 | 0.00 | 0.00 | 0.00 | 45 | 1018.2 |
| 20260906032504 | 74 | 195 | 0.0 | 0.0 | 0.00 | 0.00 | 0.00 | 45 | 1018.2 |
| 20260906031940 | 74 | 203 | 0.0 | 0.0 | 0.00 | 0.00 | 0.00 | 45 | 1018.2 |
| 20260906031913 | 74 | 203 | 0.0 | 0.0 | 0.00 | 0.00 | 0.00 | 44 | 1018.2 |
| 20260906031415 | 74 | 198 | 0.0 | 0.0 | 0.00 | 0.00 | 0.00 | 44 | 1017.8 |
| 20260906030853 | 75 | 198 | 0.0 | 0.0 | 0.00 | 0.00 | 0.00 | 43 | 1018.2 |
| 20260906030341 | 75 | 193 | 0.0 | 0.0 | 0.00 | 0.00 | 0.00 | 43 | 1017.8 |
| 20260906025832 | 75 | 197 | 0.0 | 0.0 | 0.00 | 0.00 | 0.00 | 40 | 1017.4 |
| 20260906025306 | 76 | 180 | 0.0 | 0.0 | 0.00 | 0.00 | 0.00 | 40 | 1017.4 |
| 20260906024716 | 76 | 206 | 0.0 | 0.0 | 0.00 | 0.00 | 0.00 | 41 | 1017.4 |
| 20260906024152 | 77 | 208 | 0.0 | 0.0 | 0.00 | 0.00 | 0.00 | 40 | 1017.0 |
| 20260906023723 | 77 | 206 | 0.0 | 0.0 | 0.00 | 0.00 | 0.00 | 41 | 1017.4 |
| 20260906023641 | 77 | 206 | 0.0 | 0.0 | 0.00 | 0.00 | 0.00 | 41 | 1017.0 |
| 20260906023131 | 78 | 206 | 0.0 | 0.0 | 0.00 | 0.00 | 0.00 | 40 | 1017.4 |
| 20260906022838 | 78 | 205 | 0.0 | 0.0 | 0.00 | 0.00 | 0.00 | 39 | 1017.0 |
| 20260906022722 | 78 | 206 | 0.0 | 0.0 | 0.00 | 0.00 | 0.00 | 39 | 1017.0 |
| 20260906022016 | 79 | 204 | 0.0 | 0.0 | 0.00 | 0.00 | 0.00 | 38 | 1017.0 |
| 20260906021707 | 79 | 202 | 0.0 | 0.0 | 0.00 | 0.00 | 0.00 | 37 | 1017.4 |
| 20260906021451 | 79 | 214 | 0.0 | 0.0 | 0.00 | 0.00 | 0.00 | 37 | 1017.0 |
| 20260906020940 | 79 | 228 | 0.0 | 0.0 | 0.00 | 0.00 | 0.00 | 37 | 1017.4 |
| 20260906020702 | 79 | 217 | 0.0 | 1.7 | 0.00 | 0.00 | 0.00 | 36 | 1017.4 |
| 20260906020621 | 79 | 218 | 0.0 | 1.7 | 0.00 | 0.00 | 0.00 | 36 | 1017.0 |
| 20260906015907 | 79 | 203 | 0.0 | 1.7 | 0.00 | 0.00 | 0.00 | 36 | 1017.0 |
| 20260906015559 | 79 | 253 | 0.0 | 1.7 | 0.00 | 0.00 | 0.00 | 37 | 1017.0 |
| 20260906015315 | 79 | 227 | 0.0 | 1.7 | 0.00 | 0.00 | 0.00 | 37 | 1017.0 |
| 20260906015023 | 79 | 215 | 0.9 | 1.7 | 0.00 | 0.00 | 0.00 | 37 | 1017.0 |
| 20260906014539 | 80 | 224 | 0.0 | 1.7 | 0.00 | 0.00 | 0.00 | 37 | 1017.0 |
| 20260906014227 | 80 | 222 | 0.0 | 1.7 | 0.00 | 0.00 | 0.00 | 37 | 1017.0 |
| 20260906013704 | 80 | 235 | 0.0 | 0.0 | 0.00 | 0.00 | 0.00 | 37 | 1017.0 |
| 20260906013516 | 80 | 223 | 0.0 | 0.0 | 0.00 | 0.00 | 0.00 | 37 | 1017.0 |
| 20260906013141 | 80 | 210 | 0.0 | 0.0 | 0.00 | 0.00 | 0.00 | 37 | 1016.7 |
| 20260906012616 | 81 | 210 | 0.0 | 0.0 | 0.00 | 0.00 | 0.00 | 37 | 1017.0 |
| 20260906012428 | 81 | 162 | 0.0 | 0.0 | 0.00 | 0.00 | 0.00 | 36 | 1017.0 |
| 20260906012051 | 81 | 204 | 0.0 | 0.0 | 0.00 | 0.00 | 0.00 | 37 | 1017.0 |
| 20260906011811 | 82 | 218 | 0.0 | 0.0 | 0.00 | 0.00 | 0.00 | 36 | 1017.0 |
| 20260906011341 | 82 | 201 | 0.0 | 0.0 | 0.00 | 0.00 | 0.00 | 37 | 1017.0 |
| 20260906011030 | 82 | 237 | 0.0 | 0.0 | 0.00 | 0.00 | 0.00 | 37 | 1017.0 |
| 20260906010506 | 83 | 207 | 0.0 | 1.7 | 0.00 | 0.00 | 0.00 | 36 | 1017.0 |
| 20260906010342 | 83 | 223 | 0.0 | 1.7 | 0.00 | 0.00 | 0.00 | 36 | 1017.0 |
| 20260906005941 | 83 | 220 | 0.0 | 1.7 | 0.00 | 0.00 | 0.00 | 35 | 1017.0 |
| 20260906005418 | 84 | 213 | 0.0 | 0.0 | 0.00 | 0.00 | 0.00 | 34 | 1017.0 |
| 20260906005326 | 84 | 209 | 0.0 | 1.7 | 0.00 | 0.00 | 0.00 | 35 | 1017.0 |
| 20260906004828 | 84 | 204 | 0.0 | 1.7 | 0.00 | 0.00 | 0.00 | 33 | 1017.4 |
| 20260906004304 | 85 | 249 | 0.9 | 1.7 | 0.00 | 0.00 | 0.00 | 33 | 1017.0 |
| 20260906003740 | 85 | 297 | 0.9 | 1.7 | 0.00 | 0.00 | 0.00 | 32 | 1017.4 |
| 20260906003216 | 86 | 231 | 0.0 | 1.7 | 0.00 | 0.00 | 0.00 | 32 | 1017.0 |
| 20260906002922 | 86 | 173 | 0.0 | 1.7 | 0.00 | 0.00 | 0.00 | 31 | 1017.0 |
| 20260906002412 | 87 | 250 | 0.0 | 1.7 | 0.00 | 0.00 | 0.00 | 31 | 1017.0 |
| 20260906002246 | 87 | 250 | 0.0 | 1.7 | 0.00 | 0.00 | 0.00 | 31 | 1017.0 |
| 20260906001630 | 87 | 227 | 0.0 | 4.3 | 0.00 | 0.00 | 0.00 | 30 | 1017.0 |
| 20260906001107 | 87 | 206 | 0.0 | 4.3 | 0.00 | 0.00 | 0.00 | 29 | 1017.0 |
| 20260906000746 | 87 | 203 | 0.0 | 0.0 | 0.00 | 0.00 | 0.00 | 29 | 1017.0 |
| 20260906000020 | 87 | 214 | 0.0 | 1.7 | 0.00 | 0.00 | 0.00 | 27 | 1016.7 |
| 20260905235952 | 88 | 213 | 0.0 | 1.7 | 0.00 | 0.00 | 0.00 | 28 | 1016.7 |
| 20260905235711 | 88 | 211 | 0.0 | 1.7 | 0.00 | 0.00 | 0.00 | 27 | 1017.0 |
| 20260905235000 | 88 | 228 | 0.0 | 1.7 | 0.00 | 0.00 | 0.00 | 28 | 1017.0 |
| 20260905234930 | 88 | 213 | 0.0 | 1.7 | 0.00 | 0.00 | 0.00 | 27 | 1017.0 |
| 20260905234341 | 88 | 205 | 0.0 | 0.0 | 0.00 | 0.00 | 0.00 | 28 | 1017.0 |
| 20260905233938 | 89 | 205 | 0.0 | 0.0 | 0.00 | 0.00 | 0.00 | 28 | 1017.0 |
| 20260905233815 | 89 | 202 | 0.0 | 0.0 | 0.00 | 0.00 | 0.00 | 27 | 1017.0 |
| 20260905233251 | 89 | 201 | 0.0 | 0.0 | 0.00 | 0.00 | 0.00 | 27 | 1016.7 |
| 20260905232916 | 90 | 220 | 0.0 | 1.7 | 0.00 | 0.00 | 0.00 | 27 | 1016.7 |
| 20260905232740 | 90 | 204 | 0.0 | 1.7 | 0.00 | 0.00 | 0.00 | 27 | 1016.7 |
| 20260905232240 | 91 | 201 | 0.0 | 1.7 | 0.00 | 0.00 | 0.00 | 26 | 1016.7 |
| 20260905231842 | 91 | 200 | 0.0 | 1.7 | 0.00 | 0.00 | 0.00 | 27 | 1016.7 |
| 20260905231707 | 91 | 200 | 0.0 | 1.7 | 0.00 | 0.00 | 0.00 | 26 | 1016.7 |
| 20260905231346 | 92 | 326 | 0.9 | 4.3 | 0.00 | 0.00 | 0.00 | 25 | 1016.7 |
| 20260905230834 | 93 | 207 | 0.0 | 4.3 | 0.00 | 0.00 | 0.00 | 25 | 1016.7 |
| 20260905230551 | 93 | 129 | 2.6 | 4.3 | 0.00 | 0.00 | 0.00 | 25 | 1016.7 |
| 20260905230028 | 94 | 201 | 0.0 | 1.7 | 0.00 | 0.00 | 0.00 | 25 | 1016.7 |
| 20260905225814 | 94 | 236 | 1.7 | 1.7 | 0.00 | 0.00 | 0.00 | 25 | 1016.7 |
| 20260905225503 | 94 | 197 | 0.0 | 1.7 | 0.00 | 0.00 | 0.00 | 25 | 1016.7 |
| 20260905225211 | 94 | 262 | 0.0 | 4.3 | 0.00 | 0.00 | 0.00 | 23 | 1016.7 |
| 20260905224752 | 94 | 194 | 0.0 | 4.3 | 0.00 | 0.00 | 0.00 | 24 | 1016.7 |
| 20260905224440 | 94 | 311 | 0.9 | 4.3 | 0.00 | 0.00 | 0.00 | 23 | 1016.7 |
| 20260905224150 | 94 | 217 | 0.0 | 4.3 | 0.00 | 0.00 | 0.00 | 23 | 1016.7 |
| 20260905223704 | 94 | 305 | 0.9 | 4.3 | 0.00 | 0.00 | 0.00 | 23 | 1016.7 |